Dumas, TX

10:06 AM CDT on May 28, 2017 (GMT -0500)
Moore County

Weather History for KDUX - November, 2012

Change the Weather History Date:

Tuesday, November 27, 2012

  Actual Average (KDHT) Record (KDHT)
Temperature  
Mean Temperature 36 °F -  
Max Temperature 55 °F 51 °F 80 °F (1949)
Min Temperature 17 °F 25 °F -4 °F (1976)
Degree Days  
Heating Degree Days 29    
Moisture  
Dew Point 21 °F    
Average Humidity 57    
Maximum Humidity 86    
Minimum Humidity 29    
Precipitation  
Precipitation 0.00 in - - ()
Sea Level Pressure  
Sea Level Pressure 30.26 in    
Wind  
Wind Speed 11 mph (SSW)    
Max Wind Speed 23 mph    
Max Gust Speed 28 mph    
Visibility 10 miles    
Events      
Averages and records for this station are not official NWS values.
T = Trace of Precipitation, MM = Missing Value Source: NWS Daily Summary

Daily Weather History Graph

Daily Weather History Graph

Search for Another Location

Airport or City:

Trip Planner

Search our weather history database for the weather conditions in past years. The results will help you decide how hot, cold, wet, or windy it might be!

Date:

Astronomy

Nov. 27, 2012 Rise Set
Actual Time 7:36 AM CST 5:34 PM CST
Civil Twilight 7:08 AM CST 6:02 PM CST
Nautical Twilight 6:37 AM CST 6:34 PM CST
Astronomical Twilight 6:06 AM CST 7:05 PM CST
Moon 5:07 PM CST (11/27) 6:44 AM CST (11/27)
Length of Visible Light 10h 54m
Length of Day
9h 58m
Waxing Gibbous, 99% of the Moon is Illuminated
Nov 27
Waxing Gibbous
Nov 28
Full
Dec 6
Last Quarter
Dec 13
New
Dec 19
First Quarter

Hourly Weather History & Observations

Time (CST) Temp. Windchill Dew Point Humidity Pressure Visibility Wind Dir Wind Speed Gust Speed Precip Events Conditions
12:15 AM 21.2 °F 13.6 °F 15.8 °F 80% 30.43 in 10.0 mi NW 5.8 mph - N/A   Clear
12:35 AM 21.2 °F 14.9 °F 15.8 °F 80% 30.43 in 10.0 mi WNW 4.6 mph - N/A   Clear
12:55 AM 21.2 °F 12.6 °F 14.0 °F 74% 30.42 in 10.0 mi West 6.9 mph - N/A   Clear
4:15 AM 17.6 °F 9.3 °F 12.2 °F 79% 30.37 in 10.0 mi SW 5.8 mph - N/A   Clear
4:35 AM 17.6 °F 7.3 °F 14.0 °F 86% 30.36 in 10.0 mi SW 8.1 mph - N/A   Clear
4:55 AM 19.4 °F 9.5 °F 14.0 °F 80% 30.35 in 10.0 mi SSW 8.1 mph - N/A   Clear
5:15 AM 19.4 °F 7.9 °F 14.0 °F 80% 30.34 in 10.0 mi SSW 10.4 mph - N/A   Clear
5:35 AM 19.4 °F 9.5 °F 15.8 °F 86% 30.34 in 10.0 mi South 8.1 mph - N/A   Clear
5:55 AM 19.4 °F 9.5 °F 15.8 °F 86% 30.34 in 10.0 mi SSW 8.1 mph - N/A   Clear
6:15 AM 21.2 °F 10.1 °F 17.6 °F 86% 30.33 in 10.0 mi SSW 10.4 mph - N/A   Clear
6:35 AM 21.2 °F 10.1 °F 17.6 °F 86% 30.33 in 10.0 mi SSW 10.4 mph - N/A   Clear
6:55 AM 21.2 °F 10.1 °F 17.6 °F 86% 30.34 in 10.0 mi SSW 10.4 mph - N/A   Clear
7:15 AM 21.2 °F 10.1 °F 17.6 °F 86% 30.33 in 10.0 mi SSW 10.4 mph - N/A   Clear
7:35 AM 21.2 °F 10.9 °F 17.6 °F 86% 30.33 in 10.0 mi SSW 9.2 mph - N/A   Clear
7:55 AM 23.0 °F 12.4 °F 17.6 °F 80% 30.33 in 10.0 mi SSW 10.4 mph - N/A   Clear
8:15 AM 23.0 °F 12.4 °F 17.6 °F 80% 30.32 in 10.0 mi SSW 10.4 mph - N/A   Clear
8:35 AM 26.6 °F 15.7 °F 19.4 °F 74% 30.32 in 10.0 mi SSW 12.7 mph - N/A   Clear
8:55 AM 28.4 °F 18.0 °F 19.4 °F 69% 30.32 in 10.0 mi SSW 12.7 mph - N/A   Clear
9:35 AM 32.0 °F 20.5 °F 19.4 °F 60% 30.33 in 10.0 mi SW 18.4 mph - N/A   Clear
9:55 AM 33.8 °F 23.2 °F 21.2 °F 60% 30.32 in 10.0 mi SSW 17.3 mph - N/A   Clear
10:15 AM 35.6 °F 25.2 °F 23.0 °F 60% 30.32 in 10.0 mi SW 18.4 mph 23.0 mph N/A   Clear
10:35 AM 37.4 °F 26.9 °F 24.8 °F 60% 30.32 in 10.0 mi SW 20.7 mph 24.2 mph N/A   Clear
10:55 AM 41.0 °F 31.9 °F 26.6 °F 57% 30.31 in 10.0 mi SW 19.6 mph - N/A   Clear
11:15 AM 41.0 °F 31.1 °F 26.6 °F 57% 30.31 in 10.0 mi SW 23.0 mph 27.6 mph N/A   Clear
11:35 AM 42.8 °F 33.5 °F 26.6 °F 53% 30.30 in 10.0 mi SW 23.0 mph 27.6 mph N/A   Clear
11:55 AM 44.6 °F 36.4 °F 26.6 °F 49% 30.28 in 10.0 mi SW 20.7 mph 26.5 mph N/A   Clear
12:15 PM 44.6 °F 36.9 °F 26.6 °F 49% 30.27 in 10.0 mi SW 18.4 mph - N/A   Clear
12:35 PM 46.4 °F 39.8 °F 26.6 °F 46% 30.25 in 10.0 mi SW 16.1 mph 21.9 mph N/A   Clear
12:55 PM 48.2 °F - 26.6 °F 43% 30.24 in 10.0 mi SW 18.4 mph 23.0 mph N/A   Clear
1:15 PM 50.0 °F - 26.6 °F 40% 30.24 in 10.0 mi SW 17.3 mph 20.7 mph N/A   Clear
1:35 PM 50.0 °F - 26.6 °F 40% 30.22 in 10.0 mi SW 15.0 mph 19.6 mph N/A   Clear
1:55 PM 50.0 °F - 24.8 °F 37% 30.21 in 10.0 mi SW 15.0 mph - N/A   Clear
2:15 PM 51.8 °F - 23.0 °F 33% 30.20 in 10.0 mi SW 15.0 mph - N/A   Clear
2:35 PM 51.8 °F - 23.0 °F 33% 30.20 in 10.0 mi SW 13.8 mph - N/A   Clear
2:55 PM 53.6 °F - 23.0 °F 30% 30.19 in 10.0 mi SW 15.0 mph - N/A   Clear
3:15 PM 53.6 °F - 23.0 °F 30% 30.19 in 10.0 mi SW 13.8 mph - N/A   Clear
3:35 PM 53.6 °F - 23.0 °F 30% 30.18 in 10.0 mi SSW 13.8 mph - N/A   Clear
3:55 PM 53.6 °F - 23.0 °F 30% 30.18 in 10.0 mi SW 13.8 mph - N/A   Clear
4:15 PM 55.4 °F - 23.0 °F 29% 30.17 in 10.0 mi SSW 9.2 mph - N/A   Clear
4:35 PM 55.4 °F - 23.0 °F 29% 30.17 in 10.0 mi SSW 10.4 mph - N/A   Clear
4:55 PM 53.6 °F - 23.0 °F 30% 30.18 in 10.0 mi SSW 8.1 mph - N/A   Clear
5:15 PM 50.0 °F - 23.0 °F 35% 30.17 in 10.0 mi SSW 9.2 mph - N/A   Clear
5:55 PM 42.8 °F 38.6 °F 21.2 °F 42% 30.18 in 10.0 mi South 6.9 mph - N/A   Clear
6:15 PM 42.8 °F 37.5 °F 21.2 °F 42% 30.18 in 10.0 mi South 9.2 mph - N/A   Clear
6:35 PM 37.4 °F 30.3 °F 19.4 °F 48% 30.17 in 10.0 mi South 10.4 mph - N/A   Clear
6:55 PM 39.2 °F 32.5 °F 19.4 °F 45% 30.17 in 10.0 mi SSW 10.4 mph - N/A   Clear
7:15 PM 35.6 °F 29.2 °F 19.4 °F 52% 30.18 in 10.0 mi South 8.1 mph - N/A   Clear
7:35 PM 33.8 °F 26.4 °F 17.6 °F 52% 30.18 in 10.0 mi South 9.2 mph - N/A   Clear
7:55 PM 33.8 °F 25.3 °F 17.6 °F 52% 30.18 in 10.0 mi South 11.5 mph - N/A   Clear
8:15 PM 33.8 °F 25.8 °F 19.4 °F 56% 30.18 in 10.0 mi South 10.4 mph - N/A   Clear
8:35 PM 35.6 °F 27.5 °F 21.2 °F 56% 30.18 in 10.0 mi SSW 11.5 mph - N/A   Clear
8:55 PM 41.0 °F 34.7 °F 23.0 °F 49% 30.17 in 10.0 mi SSW 10.4 mph - N/A   Clear
9:15 PM 33.8 °F 27.0 °F 19.4 °F 56% 30.18 in 10.0 mi South 8.1 mph - N/A   Clear
9:35 PM 41.0 °F 34.7 °F 23.0 °F 49% 30.18 in 10.0 mi SSW 10.4 mph - N/A   Clear
9:55 PM 41.0 °F 34.7 °F 23.0 °F 49% 30.18 in 10.0 mi SSW 10.4 mph - N/A   Clear
10:15 PM 37.4 °F 29.8 °F 23.0 °F 56% 30.18 in 10.0 mi SSW 11.5 mph - N/A   Clear
10:35 PM 39.2 °F 32.5 °F 23.0 °F 52% 30.18 in 10.0 mi SSW 10.4 mph - N/A   Clear
10:55 PM 37.4 °F 30.3 °F 23.0 °F 56% 30.19 in 10.0 mi SW 10.4 mph - N/A   Clear
11:15 PM 37.4 °F 29.8 °F 23.0 °F 56% 30.19 in 10.0 mi SW 11.5 mph - N/A   Clear
11:55 PM 35.6 °F 28.0 °F 23.0 °F 60% 30.19 in 10.0 mi SW 10.4 mph - N/A   Clear